User: anonymous   Login
Location: Axtheid
(49.6213°N, 11.8205°E)
Time: 22:52:18
(UTC+00:00)
Language:

Cosmos 1825 Rocket - Orbit

View from above orbital plane
View from above orbital plane
View from above satellite
View from above satellite

Ground track
Ground track

The orbit data is extracted from the following two-line orbital elements,

1 17567U 87024B   21104.32964798  .00000081  00000-0  67607-5 0  9993
2 17567  82.5289 331.2367 0020518  59.1247 301.1982 14.83799771822553
Epoch (UTC): 14 April 2021 07:54:41
Eccentricity: 0.0020518
inclination: 82.5289°
perigee height: 603 km
apogee height: 632 km
right ascension of ascending node: 331.2367°
argument of perigee: 59.1247°
revolutions per day: 14.83799771
mean anomaly at epoch: 301.1982°
orbit number at epoch: 82255

The dashed part of the orbit path shows where the satellite is in the earth's shadow,  

DLR